Big Rapids, MI

12:08 AM EST on November 20, 2019 (GMT -0500)
Roben-Hood

Weather History for KRQB - September, 2019

Change the Weather History Date:

Sunday, September 1, 2019

  Actual Average Record
Temperature  
Mean Temperature 61 °F -  
Max Temperature 67 °F 76 °F 91 °F (1973)
Min Temperature 55 °F 52 °F 40 °F (1970)
Degree Days  
Heating Degree Days 4    
Growing Degree Days 11 (Base 50)    
Moisture  
Dew Point 52 °F    
Average Humidity 71    
Maximum Humidity 96    
Minimum Humidity 54    
Precipitation  
Precipitation 0.00 in - - ()
Sea Level Pressure  
Sea Level Pressure 30.18 in    
Wind  
Wind Speed 2 mph (SSE)    
Max Wind Speed 8 mph    
Max Gust Speed 18 mph    
Visibility 10 miles    
Events      
Averages and records for this station are not official NWS values.
T = Trace of Precipitation, MM = Missing Value Source: NWS Daily Summary

Daily Weather History Graph

Daily Weather History Graph

Search for Another Location

Airport or City:

Astronomy

Sep. 01, 2019 Rise Set
Actual Time 7:05 AM EDT 8:17 PM EDT
Civil Twilight 6:35 AM EDT 8:47 PM EDT
Nautical Twilight 6:00 AM EDT 9:22 PM EDT
Astronomical Twilight 5:22 AM EDT 10:00 PM EDT
Moon 9:38 AM EDT (9/1) 9:59 PM EDT (9/1)
Length of Visible Light 14h 11m
Length of Day
13h 12m
Waxing Crescent, 8% of the Moon is Illuminated
Sep 1
Waxing Crescent
Sep 5
First Quarter
Sep 14
Full
Sep 21
Last Quarter
Sep 28
New

Hourly Weather History & Observations

Time (EDT) Temp. Dew Point Humidity Pressure Visibility Wind Dir Wind Speed Gust Speed Precip Events Conditions
12:15 AM 59.4 °F 53.1 °F 80% 30.28 in 10.0 mi Calm Calm - N/A   Overcast
12:20 AM 59.2 °F 53.1 °F 80% 30.28 in 10.0 mi Calm Calm - N/A   Overcast
12:37 AM 59.7 °F 52.9 °F 78% 30.28 in 10.0 mi Calm Calm - N/A   Overcast
12:55 AM 59.0 °F 52.5 °F 79% 30.28 in 10.0 mi Calm Calm - N/A   Overcast
12:56 AM 59.0 °F 52.5 °F 79% 30.28 in 10.0 mi Calm Calm - N/A   Overcast
1:15 AM 59.5 °F 52.0 °F 76% 30.29 in 10.0 mi Calm Calm - N/A   Overcast
1:16 AM 59.5 °F 51.8 °F 76% 30.29 in 10.0 mi Calm Calm - N/A   Overcast
1:55 AM 59.7 °F 51.8 °F 75% 30.28 in 10.0 mi Calm Calm - N/A   Overcast
2:15 AM 59.7 °F 51.4 °F 74% 30.27 in 10.0 mi Calm Calm - N/A   Overcast
2:39 AM 59.9 °F 50.7 °F 72% 30.27 in 10.0 mi SSE 5.8 mph - N/A   Mostly Cloudy
2:55 AM 60.6 °F 49.1 °F 66% 30.26 in 10.0 mi SSE 4.6 mph - N/A   Scattered Clouds
3:15 AM 60.4 °F 48.2 °F 64% 30.26 in 10.0 mi Calm Calm - N/A   Scattered Clouds
3:16 AM 60.3 °F 48.2 °F 64% 30.26 in 10.0 mi SSE 3.5 mph - N/A   Scattered Clouds
3:35 AM 60.3 °F 47.5 °F 63% 30.26 in 10.0 mi SSE 3.5 mph - N/A   Mostly Cloudy
3:57 AM 59.9 °F 47.5 °F 64% 30.26 in 10.0 mi Calm Calm - N/A   Overcast
4:15 AM 59.9 °F 47.3 °F 63% 30.26 in 10.0 mi Calm Calm - N/A   Overcast
4:35 AM 59.9 °F 46.6 °F 61% 30.26 in 10.0 mi Calm Calm - N/A   Overcast
4:40 AM 59.7 °F 47.1 °F 63% 30.26 in 10.0 mi Calm Calm - N/A   Overcast
4:58 AM 58.6 °F 48.0 °F 68% 30.25 in 10.0 mi Calm Calm - N/A   Overcast
5:15 AM 57.4 °F 49.3 °F 74% 30.24 in 10.0 mi Calm Calm - N/A   Overcast
5:16 AM 57.4 °F 49.1 °F 74% 30.24 in 10.0 mi Calm Calm - N/A   Overcast
5:35 AM 57.6 °F 49.3 °F 74% 30.24 in 10.0 mi Calm Calm - N/A   Overcast
5:36 AM 57.6 °F 49.3 °F 74% 30.24 in 10.0 mi Calm Calm - N/A   Overcast
5:58 AM 56.7 °F 50.0 °F 78% 30.23 in 10.0 mi Calm Calm - N/A   Overcast
6:16 AM 56.7 °F 48.9 °F 75% 30.23 in 10.0 mi Calm Calm - N/A   Overcast
6:35 AM 57.0 °F 50.2 °F 78% 30.23 in 10.0 mi Calm Calm - N/A   Overcast
6:36 AM 56.8 °F 50.2 °F 78% 30.23 in 10.0 mi Calm Calm - N/A   Overcast
6:58 AM 55.6 °F 51.8 °F 87% 30.22 in 10.0 mi Calm Calm - N/A   Overcast
7:17 AM 56.3 °F 50.4 °F 80% 30.22 in 10.0 mi Calm Calm - N/A   Overcast
7:35 AM 56.3 °F 50.7 °F 82% 30.22 in 10.0 mi Calm Calm - N/A   Overcast
7:55 AM 55.9 °F 51.3 °F 84% 30.22 in 10.0 mi Calm Calm - N/A   Overcast
8:00 AM 55.6 °F 51.4 °F 86% 30.22 in 10.0 mi Calm Calm - N/A   Overcast
8:17 AM 56.7 °F 51.8 °F 84% 30.23 in 10.0 mi Calm Calm - N/A   Overcast
8:35 AM 57.4 °F 51.1 °F 79% 30.23 in 10.0 mi Calm Calm - N/A   Overcast
8:36 AM 57.6 °F 51.1 °F 79% 30.23 in 10.0 mi Calm Calm - N/A   Overcast
8:55 AM 59.0 °F 51.3 °F 75% 30.23 in 10.0 mi Calm Calm - N/A   Mostly Cloudy
8:56 AM 59.0 °F 51.3 °F 75% 30.23 in 10.0 mi Calm Calm - N/A   Mostly Cloudy
9:19 AM 59.7 °F 51.1 °F 73% 30.23 in 10.0 mi Calm Calm - N/A   Overcast
9:36 AM 61.0 °F 51.1 °F 70% 30.23 in 10.0 mi SE 6.9 mph - N/A   Overcast
9:55 AM 61.9 °F 50.0 °F 65% 30.22 in 10.0 mi SE 5.8 mph - N/A   Scattered Clouds
9:56 AM 62.1 °F 49.8 °F 64% 30.22 in 10.0 mi SE 5.8 mph - N/A   Scattered Clouds
10:15 AM 62.8 °F 49.5 °F 62% 30.22 in 10.0 mi SSE 3.5 mph - N/A   Scattered Clouds
10:20 AM 63.7 °F 50.2 °F 61% 30.22 in 10.0 mi SSE 4.6 mph - N/A   Scattered Clouds
10:37 AM 63.9 °F 48.2 °F 57% 30.22 in 10.0 mi SE 5.8 mph - N/A   Clear
10:55 AM 63.0 °F 49.1 °F 61% 30.21 in 10.0 mi SE 4.6 mph - N/A   Clear
10:56 AM 63.1 °F 49.3 °F 61% 30.21 in 10.0 mi SE 3.5 mph - N/A   Clear
11:15 AM 64.6 °F 49.1 °F 57% 30.21 in 10.0 mi SSE 6.9 mph - N/A   Clear
11:16 AM 64.6 °F 49.3 °F 58% 30.21 in 10.0 mi South 5.8 mph - N/A   Clear
11:55 AM 67.5 °F 50.4 °F 54% 30.19 in 10.0 mi SSE 8.1 mph - N/A   Scattered Clouds
12:15 PM 67.1 °F 50.7 °F 56% 30.19 in 10.0 mi SSE 8.1 mph 18.4 mph N/A   Mostly Cloudy
12:39 PM 67.3 °F 51.3 °F 56% 30.19 in 10.0 mi SSE 3.5 mph - N/A   Overcast
12:56 PM 67.8 °F 51.6 °F 56% 30.18 in 10.0 mi SE 6.9 mph - N/A   Overcast
1:15 PM 67.5 °F 52.2 °F 58% 30.17 in 10.0 mi Calm Calm - N/A   Overcast
1:16 PM 67.3 °F 52.0 °F 58% 30.17 in 10.0 mi Calm Calm - N/A   Overcast
1:35 PM 67.1 °F 52.9 °F 60% 30.17 in 10.0 mi South 3.5 mph - N/A   Overcast
1:40 PM 67.1 °F 53.1 °F 61% 30.17 in 10.0 mi South 5.8 mph - N/A   Overcast
1:57 PM 66.6 °F 52.7 °F 61% 30.17 in 10.0 mi SE 8.1 mph - N/A   Overcast
2:15 PM 66.4 °F 52.5 °F 61% 30.16 in 10.0 mi SSE 5.8 mph - N/A   Overcast
2:16 PM 66.4 °F 52.7 °F 61% 30.16 in 10.0 mi SE 5.8 mph - N/A   Overcast
2:35 PM 66.9 °F 52.2 °F 59% 30.15 in 10.0 mi SSE 3.5 mph - N/A   Overcast
2:36 PM 66.7 °F 52.3 °F 60% 30.15 in 10.0 mi SSE 3.5 mph - N/A   Overcast
2:58 PM 66.2 °F 52.0 °F 60% 30.14 in 10.0 mi SE 6.9 mph - N/A   Overcast
3:15 PM 66.2 °F 52.7 °F 62% 30.14 in 10.0 mi SSE 3.5 mph - N/A   Overcast
3:35 PM 66.0 °F 52.5 °F 62% 30.14 in 10.0 mi SE 5.8 mph - N/A   Overcast
3:59 PM 65.8 °F 53.2 °F 64% 30.12 in 10.0 mi SSE 5.8 mph - N/A   Overcast
4:16 PM 66.2 °F 53.6 °F 64% 30.12 in 10.0 mi Calm Calm - N/A   Overcast
4:35 PM 66.2 °F 54.0 °F 65% 30.11 in 10.0 mi SSE 5.8 mph - N/A   Overcast
4:36 PM 66.2 °F 54.0 °F 65% 30.11 in 10.0 mi SSE 5.8 mph - N/A   Overcast
4:59 PM 66.2 °F 54.7 °F 66% 30.11 in 10.0 mi SSE 4.6 mph - N/A   Overcast
5:16 PM 66.4 °F 54.1 °F 65% 30.11 in 10.0 mi SSE 4.6 mph - N/A   Overcast
5:35 PM 66.2 °F 54.7 °F 66% 30.10 in 10.0 mi South 3.5 mph - N/A   Overcast
5:36 PM 66.2 °F 54.7 °F 66% 30.10 in 10.0 mi SSE 3.5 mph - N/A   Overcast
5:59 PM 66.2 °F 55.0 °F 67% 30.10 in 10.0 mi SSE 4.6 mph - N/A   Overcast
6:16 PM 65.8 °F 55.0 °F 68% 30.10 in 10.0 mi SSE 3.5 mph - N/A   Overcast
6:35 PM 66.0 °F 55.9 °F 70% 30.09 in 10.0 mi SSE 4.6 mph - N/A   Overcast
6:36 PM 66.0 °F 55.9 °F 70% 30.09 in 10.0 mi SSE 6.9 mph - N/A   Overcast
6:55 PM 65.3 °F 55.6 °F 71% 30.09 in 10.0 mi SSE 3.5 mph - N/A   Overcast
7:00 PM 65.3 °F 55.9 °F 72% 30.09 in 10.0 mi SSE 4.6 mph - N/A   Overcast
7:35 PM 64.8 °F 56.3 °F 74% 30.08 in 10.0 mi Calm Calm - N/A   Overcast
7:36 PM 64.8 °F 56.3 °F 74% 30.08 in 10.0 mi Calm Calm - N/A   Overcast
7:55 PM 64.4 °F 56.1 °F 74% 30.08 in 10.0 mi Calm Calm - N/A   Overcast
7:56 PM 64.4 °F 56.1 °F 74% 30.08 in 10.0 mi Calm Calm - N/A   Overcast
8:17 PM 63.5 °F 56.3 °F 77% 30.07 in 10.0 mi Calm Calm - N/A   Overcast
8:36 PM 63.1 °F 56.8 °F 80% 30.07 in 10.0 mi Calm Calm - N/A   Overcast
8:55 PM 62.2 °F 56.7 °F 82% 30.07 in 10.0 mi Calm Calm - N/A   Scattered Clouds
9:15 PM 61.2 °F 57.2 °F 87% 30.07 in 10.0 mi Calm Calm - N/A   Clear
9:20 PM 60.6 °F 56.5 °F 86% 30.07 in 10.0 mi Calm Calm - N/A   Clear
9:37 PM 59.5 °F 56.3 °F 89% 30.07 in 10.0 mi Calm Calm - N/A   Clear
9:56 PM 57.7 °F 55.2 °F 91% 30.08 in 10.0 mi Calm Calm - N/A   Clear
10:15 PM 58.1 °F 55.9 °F 93% 30.07 in 10.0 mi Calm Calm - N/A   Clear
10:39 PM 58.3 °F 56.3 °F 93% 30.08 in 10.0 mi Calm Calm - N/A   Clear
10:55 PM 58.1 °F 55.9 °F 93% 30.08 in 10.0 mi Calm Calm - N/A   Scattered Clouds
11:15 PM 57.7 °F 55.8 °F 93% 30.08 in 10.0 mi Calm Calm - N/A   Overcast
11:39 PM 57.4 °F 55.6 °F 94% 30.08 in 10.0 mi Calm Calm - N/A   Scattered Clouds
11:56 PM 56.7 °F 55.4 °F 96% 30.07 in 10.0 mi Calm Calm - N/A   Clear